EST,Max TemperatureF,Mean TemperatureF,Min TemperatureF,Max Dew PointF,MeanDew PointF,Min DewpointF,Max Humidity, Mean Humidity, Min Humidity, Max Sea Level PressureIn, Mean Sea Level PressureIn, Min Sea Level PressureIn, Max VisibilityMiles, Mean VisibilityMiles, Min VisibilityMiles, Max Wind SpeedMPH, Mean Wind SpeedMPH, Max Gust SpeedMPH,PrecipitationIn, CloudCover, Events, WindDirDegrees
2013-2-1,50,40,30,26,18,6,63,41,16,30.39,30.24,30.09,10,10,9,23,6,32,0.00,0,,280
2013-2-2,56,41,26,32,17,10,69,41,16,30.41,30.27,30.10,10,10,9,20,4,26,0.00,2,,225
2013-2-3,61,52,42,36,29,21,70,47,23,30.08,30.01,29.91,10,10,10,23,9,33,0.00,1,,278
2013-2-4,53,42,30,32,27,23,92,59,29,30.17,30.10,30.05,10,10,8,8,1,10,0.00,0,,182
2013-2-5,68,51,34,45,38,30,89,63,34,30.05,30.01,29.95,10,9,5,20,5,29,0.00,1,,255
2013-2-6,71,55,39,46,38,29,96,59,22,30.20,30.13,30.03,10,9,4,8,1,13,0.00,0,,275
2013-2-7,51,47,43,48,44,35,93,87,52,30.21,30.04,29.88,10,5,2,13,4,25,1.37,6,Rain,42
2013-2-8,64,55,45,47,41,29,93,69,38,30.11,29.95,29.85,10,10,10,16,6,22,0.00,5,,301
2013-2-9,65,49,33,33,28,16,89,53,16,30.35,30.26,30.12,10,10,7,8,1,13,0.00,0,,285
2013-2-10,64,51,37,52,39,27,93,65,30,30.45,30.33,30.18,10,10,4,12,3,17,0.18,2,Rain,111
2013-2-11,70,61,52,61,57,51,100,89,73,30.23,30.11,30.04,10,8,2,16,7,24,0.58,7,Rain,209
2013-2-12,65,58,50,54,47,37,96,75,37,30.13,30.02,29.93,10,10,5,9,2,13,0.31,6,Rain,288
2013-2-13,59,54,48,54,48,41,100,90,68,29.91,29.79,29.71,10,6,1,24,5,32,0.11,7,Rain,248
2013-2-14,53,45,37,42,37,34,92,74,50,30.10,30.03,29.91,10,9,5,7,1,10,0.00,0,,320
2013-2-15,64,49,33,40,34,29,100,77,27,30.13,30.06,29.96,10,6,0,9,1,13,0.00,1,Fog,280
2013-2-16,46,41,35,37,35,21,92,84,64,30.06,29.94,29.86,10,8,2,18,4,30,0.31,7,Rain,313
2013-2-17,47,39,30,21,14,7,61,41,19,30.31,30.20,30.08,10,10,10,18,7,25,0.00,0,,289
2013-2-18,59,43,26,28,23,18,85,53,24,30.43,30.35,30.27,10,10,10,14,3,16,0.00,0,,176
2013-2-19,54,45,35,50,42,26,96,83,55,30.26,30.07,29.98,10,7,2,14,4,21,0.17,5,Rain,237
2013-2-20,59,45,30,34,26,14,92,55,19,30.17,30.11,30.07,10,10,9,8,1,13,0.00,0,,250
2013-2-21,64,50,36,34,24,16,89,42,17,30.23,30.16,30.10,10,10,10,8,1,13,0.00,0,,68
2013-2-22,52,46,39,39,37,26,100,85,41,30.24,30.18,30.12,10,5,2,12,5,17,0.19,8,Rain,60
2013-2-23,47,43,39,46,42,37,100,95,92,30.12,29.95,29.85,10,4,1,10,1,15,0.79,8,Rain,77
2013-2-24,68,56,43,45,44,36,93,80,32,30.02,29.95,29.88,10,8,2,10,3,14,0.00,5,,294
2013-2-25,50,46,41,42,31,28,96,60,49,30.14,30.07,29.99,10,10,6,12,5,20,0.00,4,,67
2013-2-26,56,48,39,54,43,32,100,92,53,30.01,29.76,29.58,10,6,1,14,4,17,1.20,8,Rain,4
2013-2-27,63,52,41,43,37,35,93,63,36,29.88,29.82,29.76,10,10,10,15,7,23,0.00,0,,249
2013-2-28,56,48,40,40,31,25,86,53,32,29.92,29.85,29.79,10,10,10,23,9,32,0.00,2,,280